Tracking 32954 objects as of 19-Jan-2026
HD Live streaming from Space Station
objects crossing your sky now

NOAA 16 DEB

Track NOAA 16 DEB now!
10-day predictions


NORAD ID: 41495
Int'l Code: 2000-055LT
Perigee: 819.5 km
Apogee: 871.6 km
Inclination: 98.7 °
Period: 101.7 minutes
Semi major axis: 7216 km
RCS: Unknown
Launch date: September 21, 2000
Source: United States (US)
Launch site: AIR FORCE WESTERN TEST RANGE (AFWTR)

Note: This is SATELLITE DEBRIS
Your satellite tracking list
Your tracking list is empty




NASA's NSSDC Master Catalog

Two Line Element Set (TLE):
1 41495U 00055LT  26019.25836811  .00003016  00000-0  15368-2 0  9990
2 41495  98.6764  30.7195 0036122 310.5159  49.2870 14.16150862506654
Source of the keplerian elements: AFSPC